User: anonymous   Login
Location: Fort Wayne
(41.1310°N, 85.1290°W)
Time: 16:19:48
(UTC-04:00)
Language:

SR - Orbit

View from above orbital plane
View from above orbital plane
View from above satellite
View from above satellite

Ground track
Ground track

The orbit data is extracted from the following two-line orbital elements,

1    46U 60007B   15243.95263871 +.00000206 +00000-0 +64309-4 0  9993
2    46 066.6899 097.4560 0212477 354.3525 005.5186 14.48612145885335
Epoch (UTC): 31 August 2015 22:51:47
Eccentricity: 0.0212477
inclination: 66.6899°
perigee height: 579 km
apogee height: 881 km
right ascension of ascending node: 97.4560°
argument of perigee: 354.3525°
revolutions per day: 14.48612145
mean anomaly at epoch: 5.5186°
orbit number at epoch: 88533

The dashed part of the orbit path shows where the satellite is in the earth's shadow,  

DLR